Moorhead, MN

10:53 AM CDT on July 20, 2017 (GMT -0500)
Moorhead Municipal

Weather History for KJKJ - June, 2013

Change the Weather History Date:

Monday, June 17, 2013

  Actual Average (KFAR) Record (KFAR)
Temperature  
Mean Temperature 69 °F -  
Max Temperature 78 °F 75 °F 100 °F (1995)
Min Temperature 60 °F 54 °F 39 °F (2000)
Cooling Degree Days 4    
Growing Degree Days 19 (Base 50)    
Moisture  
Dew Point 54 °F    
Average Humidity 60    
Maximum Humidity 83    
Minimum Humidity 34    
Precipitation  
Precipitation 0.00 in - - ()
Sea Level Pressure  
Sea Level Pressure 29.96 in    
Wind  
Wind Speed 8 mph (NNW)    
Max Wind Speed 17 mph    
Max Gust Speed 25 mph    
Visibility 10 miles    
Events      
Averages and records for this station are not official NWS values.
T = Trace of Precipitation, MM = Missing Value Source: NWS Daily Summary

Daily Weather History Graph

Daily Weather History Graph

Search for Another Location

Airport or City:

Trip Planner

Search our weather history database for the weather conditions in past years. The results will help you decide how hot, cold, wet, or windy it might be!

Date:

Astronomy

Jun. 17, 2013 Rise Set
Actual Time 5:31 AM CDT 9:23 PM CDT
Civil Twilight 4:52 AM CDT 10:03 PM CDT
Nautical Twilight 3:57 AM CDT 10:57 PM CDT
Astronomical Twilight 2:37 AM CDT 12:17 AM CDT
Moon 2:44 PM CDT (6/17) 1:29 AM CDT (6/17)
Length of Visible Light 17h 11m
Length of Day
15h 51m
First Quarter, 60% of the Moon is Illuminated
Jun 17
First Quarter
Jun 23
Full
Jun 29
Last Quarter
Jul 8
New
Jul 15
First Quarter

Hourly Weather History & Observations

Time (CDT) Temp. Dew Point Humidity Pressure Visibility Wind Dir Wind Speed Gust Speed Precip Events Conditions
12:15 AM 66.2 °F 50.0 °F 56% 29.90 in 10.0 mi WNW 5.8 mph - N/A   Clear
12:34 AM 66.2 °F 50.0 °F 56% 29.90 in 10.0 mi West 6.9 mph - N/A   Mostly Cloudy
12:55 AM 64.4 °F 51.8 °F 64% 29.90 in 10.0 mi WSW 5.8 mph - N/A   Overcast
1:15 AM 66.2 °F 51.8 °F 60% 29.90 in 10.0 mi West 5.8 mph - N/A   Mostly Cloudy
1:34 AM 66.2 °F 51.8 °F 60% 29.90 in 10.0 mi WSW 4.6 mph - N/A   Scattered Clouds
1:55 AM 64.4 °F 51.8 °F 64% 29.90 in 10.0 mi West 5.8 mph - N/A   Clear
2:14 AM 62.6 °F 51.8 °F 68% 29.90 in 10.0 mi West 6.9 mph - N/A   Clear
2:35 AM 60.8 °F 51.8 °F 72% 29.91 in 10.0 mi WSW 4.6 mph - N/A   Clear
2:55 AM 62.6 °F 51.8 °F 68% 29.90 in 10.0 mi WSW 6.9 mph - N/A   Clear
3:14 AM 62.6 °F 51.8 °F 68% 29.90 in 10.0 mi West 5.8 mph - N/A   Clear
3:35 AM 62.6 °F 53.6 °F 72% 29.90 in 10.0 mi West 5.8 mph - N/A   Scattered Clouds
3:55 AM 60.8 °F 53.6 °F 77% 29.90 in 10.0 mi West 5.8 mph - N/A   Scattered Clouds
4:14 AM 60.8 °F 53.6 °F 77% 29.90 in 10.0 mi West 5.8 mph - N/A   Scattered Clouds
4:35 AM 62.6 °F 55.4 °F 77% 29.90 in 10.0 mi WNW 6.9 mph - N/A   Mostly Cloudy
4:55 AM 62.6 °F 55.4 °F 77% 29.90 in 10.0 mi West 8.1 mph - N/A   Mostly Cloudy
5:14 AM 62.6 °F 55.4 °F 77% 29.91 in 10.0 mi WNW 9.2 mph - N/A   Overcast
5:35 AM 64.4 °F 55.4 °F 73% 29.91 in 10.0 mi WNW 9.2 mph - N/A   Overcast
5:54 AM 64.4 °F 55.4 °F 73% 29.91 in 10.0 mi NW 6.9 mph - N/A   Overcast
6:15 AM 64.4 °F 55.4 °F 73% 29.91 in 10.0 mi NW 8.1 mph - N/A   Overcast
6:35 AM 64.4 °F 55.4 °F 73% 29.92 in 10.0 mi WNW 5.8 mph - N/A   Scattered Clouds
6:54 AM 64.4 °F 57.2 °F 77% 29.93 in 10.0 mi WNW 5.8 mph - N/A   Clear
7:15 AM 64.4 °F 57.2 °F 77% 29.93 in 10.0 mi WSW 4.6 mph - N/A   Clear
7:35 AM 64.4 °F 57.2 °F 77% 29.93 in 10.0 mi WNW 6.9 mph - N/A   Clear
7:54 AM 64.4 °F 57.2 °F 77% 29.93 in 10.0 mi NNW 10.4 mph - N/A   Scattered Clouds
8:15 AM 66.2 °F 57.2 °F 73% 29.94 in 10.0 mi NNW 8.1 mph - N/A   Scattered Clouds
8:34 AM 66.2 °F 57.2 °F 73% 29.95 in 10.0 mi North 9.2 mph - N/A   Clear
8:55 AM 68.0 °F 57.2 °F 68% 29.96 in 10.0 mi North 5.8 mph - N/A   Clear
9:15 AM 69.8 °F 57.2 °F 64% 29.96 in 10.0 mi NNW 9.2 mph - N/A   Clear
9:34 AM 69.8 °F 57.2 °F 64% 29.97 in 10.0 mi NNW 10.4 mph - N/A   Scattered Clouds
9:55 AM 69.8 °F 57.2 °F 64% 29.97 in 10.0 mi NNW 8.1 mph - N/A   Mostly Cloudy
10:15 AM 69.8 °F 57.2 °F 64% 29.97 in 10.0 mi North 11.5 mph - N/A   Mostly Cloudy
10:34 AM 71.6 °F 55.4 °F 57% 29.97 in 10.0 mi NNW 12.7 mph - N/A   Scattered Clouds
10:55 AM 71.6 °F 57.2 °F 60% 29.97 in 10.0 mi NNW 6.9 mph 16.1 mph N/A   Scattered Clouds
11:15 AM 71.6 °F 55.4 °F 57% 29.97 in 10.0 mi NNW 10.4 mph - N/A   Mostly Cloudy
11:35 AM 71.6 °F 55.4 °F 57% 29.97 in 10.0 mi NNW 9.2 mph 16.1 mph N/A   Mostly Cloudy
11:55 AM 73.4 °F 53.6 °F 50% 29.98 in 10.0 mi NNW 9.2 mph - N/A   Scattered Clouds
12:14 PM 73.4 °F 53.6 °F 50% 29.99 in 10.0 mi NW 16.1 mph - N/A   Mostly Cloudy
12:35 PM 75.2 °F 53.6 °F 47% 29.99 in 10.0 mi NNW 10.4 mph 17.3 mph N/A   Scattered Clouds
12:55 PM 73.4 °F 53.6 °F 50% 29.99 in 10.0 mi NNW 10.4 mph - N/A   Scattered Clouds
1:14 PM 73.4 °F 51.8 °F 47% 29.99 in 10.0 mi NNW 9.2 mph - N/A   Scattered Clouds
1:35 PM 77.0 °F 51.8 °F 41% 29.98 in 10.0 mi NNW 12.7 mph 16.1 mph N/A   Scattered Clouds
1:55 PM 77.0 °F 50.0 °F 39% 29.98 in 10.0 mi NNW 9.2 mph 18.4 mph N/A   Scattered Clouds
2:14 PM 77.0 °F 50.0 °F 39% 29.97 in 10.0 mi NNW 12.7 mph 17.3 mph N/A   Scattered Clouds
2:35 PM 78.8 °F 48.2 °F 34% 29.97 in 10.0 mi NNW 13.8 mph - N/A   Scattered Clouds
2:55 PM 77.0 °F 50.0 °F 39% 29.97 in 10.0 mi North 15.0 mph 20.7 mph N/A   Scattered Clouds
3:14 PM 73.4 °F 55.4 °F 53% 29.98 in 10.0 mi NNE 17.3 mph - N/A   Scattered Clouds
3:35 PM 73.4 °F 57.2 °F 57% 29.99 in 10.0 mi NNE 15.0 mph 25.3 mph N/A   Scattered Clouds
3:54 PM 75.2 °F 55.4 °F 50% 29.99 in 10.0 mi NNE 17.3 mph - N/A   Clear
4:15 PM 75.2 °F 53.6 °F 47% 29.99 in 10.0 mi NNE 13.8 mph 20.7 mph N/A   Clear
4:35 PM 75.2 °F 53.6 °F 47% 29.99 in 10.0 mi NNE 13.8 mph 19.6 mph N/A   Clear
4:54 PM 77.0 °F 50.0 °F 39% 29.98 in 10.0 mi NNE 13.8 mph 20.7 mph N/A   Clear
5:15 PM 77.0 °F 51.8 °F 41% 29.99 in 10.0 mi North 12.7 mph 16.1 mph N/A   Clear
5:35 PM 75.2 °F 53.6 °F 47% 29.99 in 10.0 mi North 11.5 mph 19.6 mph N/A   Clear
5:54 PM 75.2 °F 53.6 °F 47% 29.99 in 10.0 mi North 11.5 mph - N/A   Clear
6:15 PM 75.2 °F 55.4 °F 50% 29.99 in 10.0 mi North 10.4 mph - N/A   Scattered Clouds
6:35 PM 75.2 °F 55.4 °F 50% 29.98 in 10.0 mi NNE 11.5 mph - N/A   Scattered Clouds
6:54 PM 75.2 °F 55.4 °F 50% 29.99 in 10.0 mi NE 10.4 mph 16.1 mph N/A   Scattered Clouds
7:15 PM 73.4 °F 53.6 °F 50% 29.99 in 10.0 mi North 11.5 mph - N/A   Clear
7:34 PM 73.4 °F 51.8 °F 47% 30.00 in 10.0 mi NNE 10.4 mph - N/A   Clear
7:55 PM 73.4 °F 53.6 °F 50% 30.00 in 10.0 mi NNE 9.2 mph - N/A   Scattered Clouds
8:14 PM 73.4 °F 51.8 °F 47% 30.00 in 10.0 mi NNE 10.4 mph - N/A   Scattered Clouds
8:35 PM 71.6 °F 55.4 °F 57% 30.01 in 10.0 mi ENE 8.1 mph - N/A   Mostly Cloudy
8:55 PM 71.6 °F 53.6 °F 53% 30.01 in 10.0 mi NE 6.9 mph - N/A   Scattered Clouds
9:14 PM 71.6 °F 55.4 °F 57% 30.01 in 10.0 mi NE 6.9 mph - N/A   Scattered Clouds
9:35 PM 69.8 °F 55.4 °F 60% 30.02 in 10.0 mi NE 6.9 mph - N/A   Scattered Clouds
9:55 PM 69.8 °F 55.4 °F 60% 30.03 in 10.0 mi NE 5.8 mph - N/A   Scattered Clouds
10:14 PM 69.8 °F 57.2 °F 64% 30.03 in 10.0 mi NE 5.8 mph - N/A   Overcast
10:35 PM 69.8 °F 57.2 °F 64% 30.04 in 10.0 mi ENE 3.5 mph - N/A   Overcast
10:55 PM 68.0 °F 59.0 °F 73% 30.05 in 10.0 mi Calm Calm - N/A   Mostly Cloudy
11:14 PM 68.0 °F 59.0 °F 73% 30.04 in 10.0 mi ENE 3.5 mph - N/A   Mostly Cloudy
11:35 PM 66.2 °F 60.8 °F 83% 30.05 in 10.0 mi ENE 3.5 mph - N/A   Mostly Cloudy
11:54 PM 66.2 °F 59.0 °F 78% 30.05 in 10.0 mi ENE 3.5 mph - N/A   Scattered Clouds